map of CEU home
CEU - Airport
Location
City:  Clemson, South Carolina, United States
Name:Oconee County Regional
ICAO:KCEU
IATA:CEU
FAA LID:CEU

Details
Type:Airport (Airfield)
Use:Public/Civil
Latitude:3440'20"N (34.672222)
Longitude:8253'09"W (-82.885888)
Datum:WGS 1984
Elevation:890 ft (271 m)
Variation:6.36W (WMM2015 magnetic declination)
-0.07 annual change
Runways:1
Longest:5000 × 100 ft (1524 × 30.5 m), paved

Time
Time Zone:UTC-5 (DST-4)
Local Time:

Weather
METAR:KCEU 152154Z AUTO VRB03KT 10SM CLR 24/19 A3014 RMK AO2 SLP198 T02440189

Related Locations
Nearby:
Farthest:YAUG: 11415 mi / 18371 km
Augusta [Augusta Airport], WA, AU

Find:

   beyond  
but within

Other Information
Maps:
NOTAMs:
Links:
Sources:

  
  • flag of United States
  • flag of South Carolina
  

Sectional Chart

Flight Planning
at skyvector.com

Satellite Image

Google Maps Satellite view

 

Copyright © 2004-2018 Karl L. Swartz. All rights reserved.
The Great Circle Mapper name and logo are trademarks of the Great Circle Mapper.
All other trademarks mentioned herein belong to their respective owners.
Please see credits for attibutions and further copyright information.

  Follow gcmap on Facebook Follow gcmap on Twitter Follow gcmap on Google+ GCmap on LinkedIn

hCard Microformat

Geo Microformat